Flag for Germany Weather past 2 weeks in Rheda-Wiedenbrück, North Rhine-Westphalia, Germany

Now
73 °F

Sunny.


Feels Like: 77 °F
Forecast: 62 / 89 °F
Wind: 1 mph from North

Location: Paderborn / Lippstadt

Current Time: Aug 29, 2015 at 7:52:47 PM

Latest Report: Aug 29, 2015 at 7:20 PM


Visibility: 10 mi

Pressure: 30.12 "Hg

Humidity: 57%

Dew point: 57 °F

Location of Rheda-WiedenbrückLocation

Historic Weather in Rheda-Wiedenbrück — Graph

°F

Rheda-Wiedenbrück temperature yesterday

Maximum temperature yesterday: 66 °F (at 6:20 PM)
Minimum temperature yesterday: 50 °F (at 6:50 AM)
Average temperature yesterday: 57 °F

Past Weeks' High & Low Weather Summary

 TemperatureHumidityPressure
High77 °F (Aug 26, 3:50 PM)100% (Aug 16, 11:50 AM)30.27 "Hg (Aug 16, 11:50 AM)
Low48 °F (Aug 29, 5:50 AM)31% (Aug 22, 3:20 PM)29.59 "Hg (Aug 24, 4:20 PM)
Average62 °F71%29.97 "Hg
* Reported Aug 14 6:20 PM — Aug 29 6:50 PM, Rheda-Wiedenbrück, Weather by CustomWeather, © 2015

Note: Actual official high and low records may vary slightly from our data, if they occured in-between our weather recording intervals... More about our weather records

Advertising

Rheda-Wiedenbrück weather history for previous 24 hours

 ConditionsComfort  
Time TempWeatherWind HumidityBarometerVisibility
6:50 PM
Sat, Aug 29
72 °FPassing clouds.3 mph65%30.15 "HgN/A
6:20 PM72 °FPassing clouds.3 mph65%30.15 "HgN/A
5:50 PM72 °FPassing clouds.5 mph61%30.15 "HgN/A
5:20 PM73 °FPassing clouds.3 mph53%30.15 "HgN/A
4:50 PM75 °FPassing clouds.2 mph54%30.15 "HgN/A
4:20 PM73 °FPassing clouds.6 mph53%30.18 "HgN/A
3:50 PM73 °FPassing clouds.6 mph50%30.18 "HgN/A
3:20 PM73 °FPassing clouds.5 mph50%30.18 "HgN/A
2:50 PM72 °FPassing clouds.5 mph53%30.18 "HgN/A
2:20 PM72 °FPassing clouds.6 mph50%30.18 "HgN/A
1:50 PM70 °FPassing clouds.3 mph53%30.21 "HgN/A
1:20 PM70 °FPassing clouds.8 mph60%30.21 "HgN/A
12:50 PM68 °FPassing clouds.7 mph60%30.21 "HgN/A
11:50 AM66 °FPassing clouds.9 mph60%30.24 "HgN/A
11:20 AM66 °FSunny.7 mph64%30.24 "Hg10 mi
10:50 AM66 °FSunny.7 mph64%30.24 "Hg10 mi
9:50 AM63 °FSunny.7 mph73%30.24 "Hg10 mi
9:20 AM61 °FSunny.3 mph72%30.24 "Hg10 mi
8:50 AM59 °FSunny.3 mph77%30.24 "Hg10 mi
7:50 AM52 °FSunny.2 mph88%30.24 "Hg10 mi
7:20 AM50 °FClear.7 mph94%30.24 "Hg10 mi
6:50 AM48 °FClear.8 mph94%30.21 "Hg10 mi
6:20 AM48 °FClear.9 mph94%30.21 "Hg10 mi
5:50 AM48 °FClear.2 mph94%30.21 "Hg10 mi
4:50 AM50 °FClear.2 mph94%30.21 "Hg10 mi
4:20 AM50 °FPassing clouds.5 mph94%30.21 "HgN/A
3:50 AM50 °FClear.2 mph94%30.21 "Hg10 mi
3:20 AM52 °FClear.5 mph94%30.21 "Hg10 mi
2:50 AM52 °FClear.2 mph88%30.21 "Hg10 mi
2:20 AM52 °FClear.1 mph88%30.21 "Hg10 mi
1:50 AM54 °FClear.2 mph88%30.21 "Hg10 mi
1:20 AM52 °FClear.1 mph88%30.21 "Hg10 mi
12:50 AM52 °FClear.1 mph94%30.21 "Hg10 mi
12:20 AM54 °FClear.1 mph88%30.18 "Hg10 mi
11:50 PM
Fri, Aug 28
54 °FClear.1 mph88%30.18 "Hg10 mi
11:20 PM54 °FClear.2 mph88%30.18 "Hg10 mi
10:50 PM54 °FClear.2 mph88%30.18 "Hg10 mi
10:20 PM55 °FClear.1 mph82%30.18 "Hg10 mi
9:50 PM55 °FClear.2 mph88%30.15 "Hg10 mi
9:20 PM57 °FSunny.2 mph82%30.15 "Hg10 mi
8:50 PM57 °FSunny.2 mph82%30.15 "Hg10 mi
8:20 PM57 °FSunny.2 mph77%30.12 "Hg10 mi
7:50 PM63 °FSunny.1 mph64%30.12 "Hg10 mi
7:20 PM64 °FSunny.3 mph60%30.12 "Hg10 mi
Weather by CustomWeather, © 2015

See weather overviewHow to use our weather pages